Regional Weather Roundup
Issued by NWS Northern Indiana

Home | Current Version | Previous Version | Graphics & Text | Print | Product List | Glossary On
Versions: 1 2 3 4 5 6 7 8 9 10 11 12 13 14 15 16 17 18 19 20 21 22 23 24 25 26 27 28 29 30 31 32 33 34 35 36 37 38 39 40 41 42 43 44 45 46 47 48 49 50
000
ASUS43 KIWX 290710
RWRIWX

KIWX WEATHER ROUNDUP
NATIONAL WEATHER SERVICE NORTHERN INDIANA
300 AM EDT SAT APR 29 2017

NOTE: "FAIR" INDICATES FEW OR NO CLOUDS BELOW 12,000 FEET WITH NO
SIGNIFICANT WEATHER AND/OR OBSTRUCTIONS TO VISIBILITY.

* THESE STATIONS ARE NOT UNDER NWS QUALITY CONTROL. THEY ALSO MAY NOT
  REPORT WEATHER SUCH AS PRECIPITATION OR FOG.

INZ001>027-290800-
NORTHERN INDIANA

CITY           SKY/WX    TMP DP  RH WIND       PRES   REMARKS
GARY*          CLOUDY    47  41  77 N12G20    30.04R
VALPARAISO     CLOUDY    48  42  80 N10       29.97F
MICHIGAN CITY* CLOUDY    46  39  76 N9        30.00F
LAPORTE*       CLOUDY    48  45  87 N12       29.99F
KNOX*          CLOUDY    50  37  62 N3        29.96F
SOUTH BEND     CLOUDY    52  48  86 N3        29.99R
GOSHEN         CLOUDY    53  48  83 N5        29.96F
MONTICELLO*    CLOUDY    53  51  95 N6        29.92F FOG
LOGANSPORT*    CLOUDY    52  52 100 N6        29.93F FOG
ROCHESTER*     CLOUDY    55  52  88 N6        29.94F
WARSAW*        CLOUDY    52  50  93 CALM      29.95F
ANGOLA*        CLOUDY    54  43  66 N5        29.96F
FORT WAYNE     CLOUDY    54  52  93 E8        29.96R FOG
HUNTINGTON*    CLOUDY    53  52  95 CALM      29.95R FOG
PERU/GRISSOM   CLOUDY    52  52 100 NE6       29.91F FOG
MARION*        CLOUDY    54  54 100 NE6       29.93F FOG

$$
INZ028>050-290800-
CENTRAL INDIANA

CITY           SKY/WX    TMP DP  RH WIND       PRES   REMARKS
LAFAYETTE      CLOUDY    54  54 100 N5        29.90F FOG
KOKOMO*        CLOUDY    54  53  97 NE9       29.91F
MUNCIE*        CLOUDY    57  55  93 NE6       29.93R FOG
INDIANAPOLIS   TSTM      57  56  96 NE7       29.90R FOG

$$
MIZ043>046-050>051-056>058-064>065-071>073-077>080-290800-
SOUTHWEST LOWER MICHIGAN

CITY           SKY/WX    TMP DP  RH WIND       PRES   REMARKS
BATTLE CREEK   CLOUDY    53  48  83 S3        30.03R
BENTON HARBOR  CLOUDY    50  43  77 VRB5      30.00R
COLDWATER*     CLOUDY    52  49  90 N3        29.97F
HILLSDALE*     CLOUDY    52  48  87 CALM      29.98S
HOLLAND        CLOUDY    48  39  71 NE9G21    30.02F
GRAND RAPIDS   CLOUDY    49  40  71 NE13      30.02R
KALAMAZOO      CLOUDY    55  46  71 CALM      30.02R
STURGIS*       CLOUDY    52  48  86 E5        29.96F
THREE RIVERS*  CLOUDY    52  47  83 CALM      29.98S

$$
OHZ001>008-015>018-024>025-290800-
NORTHWEST OHIO

CITY           SKY/WX    TMP DP  RH WIND       PRES   REMARKS
WAUSEON*       CLOUDY    54  52  94 NE6       29.97R
DEFIANCE       CLOUDY    53  51  93 NE5       29.96R
FINDLAY        CLOUDY    56  52  86 E10       29.95S
TOLEDO EXPRESS CLOUDY    53  53 100 E3        29.97R
TOLEDO METCALF CLOUDY    54  54 100 E3        29.99R FOG
LIMA           CLOUDY    57  56  96 N7        29.94S

$$
AND FOR LAKE MICHIGAN COASTAL AND OPEN LAKE BUOY OBSERVATIONS

STATION/POSITION TEMP    WIND        PRES    VSBY  WAVE
                 AIR SEA DIR/SP/G                  HT/PER
                 (F)     (DEG/KT/KT) (MB)    (MI)  (FT/S)
CALUMET HARBOR    45      10/ 11/ 15 1017.0R
MICHIGAN CITY     45      40/ 15/ 17   N/A
BURNS HARBOR      47      60/ 14/ 17 1016.9R
SOUTH LAKE BUOY   43 41   20/ 14/ 16 1017.2          2/ 4
4 MI NW BRIDGMAN  48 48   60/ 16/ 19 1017.0          4/ 4
MICHIGAN CITY     45 47                N/A           4/ 3

$$
&&




USA.gov is the U.S. government's official web portal to all federal, state and local government web resources and services.